Time,TemperatureF,DewpointF,PressureIn,WindDirection,WindDirectionDegrees,WindSpeedMPH,WindSpeedGustMPH,Humidity,HourlyPrecipIn,Conditions,Clouds,dailyrainin,SoftwareType,DateUTC
2013-01-02 00:00:00,24.4,21.9,30.38,NW,323,2.0,2.0,90,0.00,,---,0.00,VWS V14.01,2013-01-02 06:00:00,
2013-01-02 00:05:00,24.4,21.9,30.38,NW,321,2.0,2.0,90,0.00,,---,0.00,VWS V14.01,2013-01-02 06:05:00,
2013-01-02 00:10:00,24.3,21.8,30.38,NW,319,2.0,3.0,90,0.00,,---,0.00,VWS V14.01,2013-01-02 06:10:00,
2013-01-02 00:15:00,24.3,21.8,30.38,NW,310,1.0,3.0,90,0.00,,---,0.00,VWS V14.01,2013-01-02 06:15:00,
2013-01-02 00:20:00,24.3,21.8,30.38,NW,311,0.0,3.0,90,0.00,,---,0.00,VWS V14.01,2013-01-02 06:20:00,
2013-01-02 00:25:00,24.3,21.8,30.38,NW,310,0.0,3.0,90,0.00,,---,0.00,VWS V14.01,2013-01-02 06:25:00,
2013-01-02 00:30:00,24.2,21.7,30.38,NW,310,0.0,3.0,90,0.00,,---,0.00,VWS V14.01,2013-01-02 06:30:00,
2013-01-02 00:35:00,24.2,21.7,30.37,NW,310,0.0,0.0,90,0.00,,---,0.00,VWS V14.01,2013-01-02 06:35:00,
2013-01-02 00:41:00,24.1,21.3,30.37,NW,310,0.0,0.0,89,0.00,,---,0.00,VWS V14.01,2013-01-02 06:41:00,
2013-01-02 00:46:00,24.0,21.5,30.37,NW,310,0.0,0.0,90,0.00,,---,0.00,VWS V14.01,2013-01-02 06:46:00,
2013-01-02 00:51:00,24.0,21.5,30.37,NW,310,0.0,0.0,90,0.00,,---,0.00,VWS V14.01,2013-01-02 06:51:00,
2013-01-02 00:56:00,23.9,21.4,30.37,NW,310,0.0,0.0,90,0.00,,---,0.00,VWS V14.01,2013-01-02 06:56:00,
2013-01-02 01:01:00,23.9,21.4,30.37,NW,310,0.0,0.0,90,0.00,,---,0.00,VWS V14.01,2013-01-02 07:01:00,
2013-01-02 01:06:00,23.9,21.4,30.37,NW,304,2.0,2.0,90,0.00,,---,0.00,VWS V14.01,2013-01-02 07:06:00,
2013-01-02 01:11:00,23.8,21.3,30.37,WNW,291,1.0,2.0,90,0.00,,---,0.00,VWS V14.01,2013-01-02 07:11:00,
2013-01-02 01:17:00,23.8,21.3,30.37,WNW,290,0.0,2.0,90,0.00,,---,0.00,VWS V14.01,2013-01-02 07:17:00,
2013-01-02 01:22:00,23.7,21.2,30.36,WNW,290,0.0,2.0,90,0.00,,---,0.00,VWS V14.01,2013-01-02 07:22:00,
2013-01-02 01:27:00,23.7,21.2,30.36,WNW,290,0.0,2.0,90,0.00,,---,0.00,VWS V14.01,2013-01-02 07:27:00,
2013-01-02 01:32:00,23.5,21.0,30.36,WNW,290,0.0,0.0,90,0.00,,---,0.00,VWS V14.01,2013-01-02 07:32:00,
2013-01-02 01:37:00,23.3,20.8,30.36,WNW,290,0.0,0.0,90,0.00,,---,0.00,VWS V14.01,2013-01-02 07:37:00,
2013-01-02 01:42:00,23.2,20.7,30.36,WNW,291,0.0,0.0,90,0.00,,---,0.00,VWS V14.01,2013-01-02 07:42:00,
2013-01-02 01:48:00,23.3,21.1,30.36,WNW,291,1.0,1.0,91,0.00,,---,0.00,VWS V14.01,2013-01-02 07:48:00,
2013-01-02 01:53:00,23.6,21.1,30.36,WNW,290,2.0,2.0,90,0.00,,---,0.00,VWS V14.01,2013-01-02 07:53:00,
2013-01-02 01:58:00,23.8,21.3,30.37,WNW,290,3.0,3.0,90,0.00,,---,0.00,VWS V14.01,2013-01-02 07:58:00,
2013-01-02 02:03:00,23.6,21.1,30.37,WNW,297,3.0,3.0,90,0.00,,---,0.00,VWS V14.01,2013-01-02 08:03:00,
2013-01-02 02:08:00,23.5,21.0,30.36,NW,307,3.0,5.0,90,0.00,,---,0.00,VWS V14.01,2013-01-02 08:08:00,
2013-01-02 02:13:00,23.8,21.3,30.36,NW,312,3.0,6.0,90,0.00,,---,0.00,VWS V14.01,2013-01-02 08:13:00,
2013-01-02 02:18:00,23.9,21.4,30.37,NW,316,4.0,6.0,90,0.00,,---,0.00,VWS V14.01,2013-01-02 08:18:00,
2013-01-02 02:24:00,23.8,21.3,30.37,WNW,294,2.0,6.0,90,0.00,,---,0.00,VWS V14.01,2013-01-02 08:24:00,
2013-01-02 02:29:00,23.7,21.2,30.37,NW,308,3.0,6.0,90,0.00,,---,0.00,VWS V14.01,2013-01-02 08:29:00,
2013-01-02 02:34:00,23.7,21.2,30.37,NW,315,3.0,4.0,90,0.00,,---,0.00,VWS V14.01,2013-01-02 08:34:00,
2013-01-02 02:39:00,23.6,21.1,30.37,WNW,302,1.0,4.0,90,0.00,,---,0.00,VWS V14.01,2013-01-02 08:39:00,
2013-01-02 02:44:00,23.5,21.0,30.37,WNW,294,3.0,4.0,90,0.00,,---,0.00,VWS V14.01,2013-01-02 08:44:00,
2013-01-02 02:49:00,23.4,20.9,30.37,WNW,293,3.0,4.0,90,0.00,,---,0.00,VWS V14.01,2013-01-02 08:49:00,
2013-01-02 02:54:00,23.3,20.8,30.36,NW,307,2.0,4.0,90,0.00,,---,0.00,VWS V14.01,2013-01-02 08:54:00,
2013-01-02 02:59:00,23.2,20.7,30.36,NW,307,3.0,4.0,90,0.00,,---,0.00,VWS V14.01,2013-01-02 08:59:00,
2013-01-02 03:04:00,23.2,20.7,30.37,NW,314,1.0,2.0,90,0.00,,---,0.00,VWS V14.01,2013-01-02 09:04:00,
2013-01-02 03:09:00,23.1,20.6,30.37,WNW,303,1.0,2.0,90,0.00,,---,0.00,VWS V14.01,2013-01-02 09:09:00,
2013-01-02 03:15:00,23.1,20.6,30.36,WNW,302,0.0,2.0,90,0.00,,---,0.00,VWS V14.01,2013-01-02 09:15:00,
2013-01-02 03:20:00,22.9,20.4,30.36,North,349,2.0,2.0,90,0.00,,---,0.00,VWS V14.01,2013-01-02 09:20:00,
2013-01-02 03:25:00,22.9,20.4,30.37,NNW,328,2.0,2.0,90,0.00,,---,0.00,VWS V14.01,2013-01-02 09:25:00,
2013-01-02 03:30:00,22.8,20.3,30.36,NNW,333,0.0,3.0,90,0.00,,---,0.00,VWS V14.01,2013-01-02 09:30:00,
2013-01-02 03:35:00,22.7,20.2,30.36,NNW,333,0.0,1.0,90,0.00,,---,0.00,VWS V14.01,2013-01-02 09:35:00,
2013-01-02 03:40:00,22.7,20.2,30.35,NNW,333,0.0,1.0,90,0.00,,---,0.00,VWS V14.01,2013-01-02 09:40:00,
2013-01-02 03:45:00,22.6,20.1,30.36,NNW,333,0.0,1.0,90,0.00,,---,0.00,VWS V14.01,2013-01-02 09:45:00,
2013-01-02 03:50:00,22.5,20.0,30.36,NNW,333,0.0,1.0,90,0.00,,---,0.00,VWS V14.01,2013-01-02 09:50:00,
2013-01-02 03:56:00,22.4,19.9,30.36,NNW,333,0.0,1.0,90,0.00,,---,0.00,VWS V14.01,2013-01-02 09:56:00,
2013-01-02 04:01:00,22.2,19.7,30.36,NNW,333,0.0,1.0,90,0.00,,---,0.00,VWS V14.01,2013-01-02 10:01:00,
2013-01-02 04:06:00,22.2,19.7,30.35,NNW,333,0.0,0.0,90,0.00,,---,0.00,VWS V14.01,2013-01-02 10:06:00,
2013-01-02 04:11:00,22.0,19.5,30.35,NNW,333,0.0,0.0,90,0.00,,---,0.00,VWS V14.01,2013-01-02 10:11:00,
2013-01-02 04:16:00,21.7,19.2,30.36,NNW,333,0.0,0.0,90,0.00,,---,0.00,VWS V14.01,2013-01-02 10:16:00,
2013-01-02 04:21:00,21.5,19.3,30.35,NNW,333,0.0,0.0,91,0.00,,---,0.00,VWS V14.01,2013-01-02 10:21:00,
2013-01-02 04:26:00,21.8,19.8,30.35,WNW,294,2.0,2.0,92,0.00,,---,0.00,VWS V14.01,2013-01-02 10:26:00,
2013-01-02 04:31:00,21.8,19.6,30.36,WNW,294,2.0,2.0,91,0.00,,---,0.00,VWS V14.01,2013-01-02 10:31:00,
2013-01-02 04:37:00,21.8,19.6,30.35,WNW,294,2.0,2.0,91,0.00,,---,0.00,VWS V14.01,2013-01-02 10:37:00,
2013-01-02 04:42:00,21.8,19.6,30.35,WNW,293,2.0,2.0,91,0.00,,---,0.00,VWS V14.01,2013-01-02 10:42:00,
2013-01-02 04:47:00,21.8,19.6,30.36,WNW,293,1.0,2.0,91,0.00,,---,0.00,VWS V14.01,2013-01-02 10:47:00,
2013-01-02 04:52:00,21.8,19.6,30.36,WNW,294,1.0,2.0,91,0.00,,---,0.00,VWS V14.01,2013-01-02 10:52:00,
2013-01-02 04:57:00,21.8,19.6,30.36,WNW,294,0.0,2.0,91,0.00,,---,0.00,VWS V14.01,2013-01-02 10:57:00,
2013-01-02 05:02:00,21.9,19.7,30.36,WNW,293,0.0,1.0,91,0.00,,---,0.00,VWS V14.01,2013-01-02 11:02:00,
2013-01-02 05:07:00,21.9,19.7,30.36,WNW,294,0.0,1.0,91,0.00,,---,0.00,VWS V14.01,2013-01-02 11:07:00,
2013-01-02 05:12:00,21.8,19.6,30.36,WNW,294,0.0,1.0,91,0.00,,---,0.00,VWS V14.01,2013-01-02 11:12:00,
2013-01-02 05:17:00,21.6,19.4,30.36,WNW,293,0.0,1.0,91,0.00,,---,0.00,VWS V14.01,2013-01-02 11:17:00,
2013-01-02 05:23:00,21.4,19.2,30.36,WNW,294,0.0,1.0,91,0.00,,---,0.00,VWS V14.01,2013-01-02 11:23:00,
2013-01-02 05:28:00,21.4,19.2,30.36,WNW,294,0.0,1.0,91,0.00,,---,0.00,VWS V14.01,2013-01-02 11:28:00,
2013-01-02 05:33:00,21.4,19.2,30.36,SW,218,1.0,2.0,91,0.00,,---,0.00,VWS V14.01,2013-01-02 11:33:00,
2013-01-02 05:38:00,21.1,18.9,30.36,SSW,211,2.0,2.0,91,0.00,,---,0.00,VWS V14.01,2013-01-02 11:38:00,
2013-01-02 05:43:00,20.5,18.0,30.36,SSW,210,0.0,2.0,90,0.00,,---,0.00,VWS V14.01,2013-01-02 11:43:00,
2013-01-02 05:48:00,20.1,17.6,30.36,SSW,203,1.0,2.0,90,0.00,,---,0.00,VWS V14.01,2013-01-02 11:48:00,
2013-01-02 05:53:00,19.8,17.6,30.36,SSW,195,1.0,2.0,91,0.00,,---,0.00,VWS V14.01,2013-01-02 11:53:00,
2013-01-02 05:59:00,19.7,17.5,30.36,SSW,197,1.0,2.0,91,0.00,,---,0.00,VWS V14.01,2013-01-02 11:59:00,
2013-01-02 06:04:00,19.5,17.3,30.36,SSW,195,1.0,1.0,91,0.00,,---,0.00,VWS V14.01,2013-01-02 12:04:00,
2013-01-02 06:09:00,19.4,17.2,30.36,South,186,1.0,2.0,91,0.00,,---,0.00,VWS V14.01,2013-01-02 12:09:00,
2013-01-02 06:14:00,19.3,17.1,30.36,South,191,2.0,2.0,91,0.00,,---,0.00,VWS V14.01,2013-01-02 12:14:00,
2013-01-02 06:19:00,19.3,17.4,30.36,SSE,166,2.0,3.0,92,0.00,,---,0.00,VWS V14.01,2013-01-02 12:19:00,
2013-01-02 06:24:00,19.3,17.4,30.36,South,170,2.0,3.0,92,0.00,,---,0.00,VWS V14.01,2013-01-02 12:24:00,
2013-01-02 06:29:00,19.4,17.5,30.36,SSE,158,1.0,3.0,92,0.00,,---,0.00,VWS V14.01,2013-01-02 12:29:00,
2013-01-02 06:34:00,19.5,17.6,30.37,SSW,200,2.0,2.0,92,0.00,,---,0.00,VWS V14.01,2013-01-02 12:34:00,
2013-01-02 06:40:00,19.7,17.8,30.36,SSW,207,2.0,3.0,92,0.00,,---,0.00,VWS V14.01,2013-01-02 12:40:00,
2013-01-02 06:45:00,19.8,17.9,30.37,SSW,204,1.0,3.0,92,0.00,,---,0.00,VWS V14.01,2013-01-02 12:45:00,
2013-01-02 06:50:00,19.7,17.8,30.37,SSW,194,2.0,3.0,92,0.00,,---,0.00,VWS V14.01,2013-01-02 12:50:00,
2013-01-02 06:55:00,19.7,17.8,30.37,SSE,166,1.0,3.0,92,0.00,,---,0.00,VWS V14.01,2013-01-02 12:55:00,
2013-01-02 07:00:00,19.6,17.7,30.37,SSW,198,2.0,3.0,92,0.00,,---,0.00,VWS V14.01,2013-01-02 13:00:00,
2013-01-02 07:05:00,19.7,17.8,30.37,SW,218,4.0,4.0,92,0.00,,---,0.00,VWS V14.01,2013-01-02 13:05:00,
2013-01-02 07:10:00,19.8,17.9,30.37,South,191,1.0,4.0,92,0.00,,---,0.00,VWS V14.01,2013-01-02 13:10:00,
2013-01-02 07:15:00,19.7,17.8,30.38,SSW,203,2.0,4.0,92,0.00,,---,0.00,VWS V14.01,2013-01-02 13:15:00,
2013-01-02 07:20:00,19.6,17.7,30.38,SSW,198,2.0,4.0,92,0.00,,---,0.00,VWS V14.01,2013-01-02 13:20:00,
2013-01-02 07:26:00,19.5,17.6,30.38,SW,217,3.0,4.0,92,0.00,,---,0.00,VWS V14.01,2013-01-02 13:26:00,
2013-01-02 07:31:00,19.4,17.5,30.38,South,184,2.0,2.0,92,0.00,,---,0.00,VWS V14.01,2013-01-02 13:31:00,
2013-01-02 07:36:00,19.3,17.4,30.38,SE,146,3.0,4.0,92,0.00,,---,0.00,VWS V14.01,2013-01-02 13:36:00,
2013-01-02 07:41:00,19.0,17.1,30.38,SSE,156,2.0,4.0,92,0.00,,---,0.00,VWS V14.01,2013-01-02 13:41:00,
2013-01-02 07:46:00,18.8,16.6,30.39,South,170,1.0,4.0,91,0.00,,---,0.00,VWS V14.01,2013-01-02 13:46:00,
2013-01-02 07:51:00,18.6,16.7,30.39,South,181,1.0,4.0,92,0.00,,---,0.00,VWS V14.01,2013-01-02 13:51:00,
2013-01-02 07:56:00,18.6,16.7,30.39,SSW,201,3.0,4.0,92,0.00,,---,0.00,VWS V14.01,2013-01-02 13:56:00,
2013-01-02 08:01:00,18.6,16.7,30.39,SSW,198,3.0,5.0,92,0.00,,---,0.00,VWS V14.01,2013-01-02 14:01:00,
2013-01-02 08:07:00,18.8,16.9,30.39,SSW,207,3.0,5.0,92,0.00,,---,0.00,VWS V14.01,2013-01-02 14:07:00,
2013-01-02 08:12:00,19.0,17.1,30.39,SSW,203,2.0,5.0,92,0.00,,---,0.00,VWS V14.01,2013-01-02 14:12:00,
2013-01-02 08:17:00,19.0,17.1,30.39,SW,221,2.0,5.0,92,0.00,,---,0.00,VWS V14.01,2013-01-02 14:17:00,
2013-01-02 08:22:00,19.1,17.2,30.39,WSW,249,2.0,5.0,92,0.00,,---,0.00,VWS V14.01,2013-01-02 14:22:00,
2013-01-02 08:27:00,19.5,17.6,30.39,SSW,212,2.0,5.0,92,0.00,,---,0.00,VWS V14.01,2013-01-02 14:27:00,
2013-01-02 08:32:00,19.9,18.0,30.40,SSW,200,3.0,3.0,92,0.00,,---,0.00,VWS V14.01,2013-01-02 14:32:00,
2013-01-02 08:37:00,20.4,18.5,30.40,SSW,203,3.0,5.0,92,0.00,,---,0.00,VWS V14.01,2013-01-02 14:37:00,
2013-01-02 08:42:00,21.1,19.1,30.40,SSW,207,2.0,6.0,92,0.00,,---,0.00,VWS V14.01,2013-01-02 14:42:00,
2013-01-02 08:48:00,21.9,19.9,30.40,SW,228,3.0,7.0,92,0.00,,---,0.00,VWS V14.01,2013-01-02 14:48:00,
2013-01-02 08:53:00,22.8,20.8,30.39,SW,221,3.0,7.0,92,0.00,,---,0.00,VWS V14.01,2013-01-02 14:53:00,
2013-01-02 08:58:00,23.4,21.4,30.39,SW,214,5.0,7.0,92,0.00,,---,0.00,VWS V14.01,2013-01-02 14:58:00,
2013-01-02 09:03:00,23.8,21.6,30.39,SW,228,1.0,4.0,91,0.00,,---,0.00,VWS V14.01,2013-01-02 15:03:00,
2013-01-02 09:08:00,24.2,22.0,30.40,WNW,283,0.0,4.0,91,0.00,,---,0.00,VWS V14.01,2013-01-02 15:08:00,
2013-01-02 09:13:00,24.6,22.1,30.40,SW,217,1.0,5.0,90,0.00,,---,0.00,VWS V14.01,2013-01-02 15:13:00,
2013-01-02 09:18:00,25.0,22.5,30.40,SSW,200,3.0,5.0,90,0.00,,---,0.00,VWS V14.01,2013-01-02 15:18:00,
2013-01-02 09:23:00,25.5,23.0,30.39,SW,218,4.0,6.0,90,0.00,,---,0.00,VWS V14.01,2013-01-02 15:23:00,
2013-01-02 09:29:00,26.1,23.6,30.39,SW,215,3.0,7.0,90,0.00,,---,0.00,VWS V14.01,2013-01-02 15:29:00,
2013-01-02 09:34:00,26.9,24.4,30.39,SW,217,4.0,5.0,90,0.00,,---,0.00,VWS V14.01,2013-01-02 15:34:00,
2013-01-02 09:39:00,27.8,25.0,30.40,SSW,195,2.0,5.0,89,0.00,,---,0.00,VWS V14.01,2013-01-02 15:39:00,
2013-01-02 09:44:00,28.5,25.4,30.40,South,177,2.0,7.0,88,0.00,,---,0.00,VWS V14.01,2013-01-02 15:44:00,
2013-01-02 09:49:00,29.1,25.4,30.40,SSW,201,2.0,8.0,86,0.00,,---,0.00,VWS V14.01,2013-01-02 15:49:00,
2013-01-02 09:54:00,29.6,25.6,30.40,South,184,4.0,10.0,85,0.00,,---,0.00,VWS V14.01,2013-01-02 15:54:00,
2013-01-02 10:00:00,30.1,25.9,30.40,SSW,204,3.0,10.0,84,0.00,,---,0.00,VWS V14.01,2013-01-02 16:00:00,
2013-01-02 10:05:00,30.5,26.0,30.40,SW,235,6.0,9.0,83,0.00,,---,0.00,VWS V14.01,2013-01-02 16:05:00,
2013-01-02 10:10:00,30.8,26.3,30.40,SW,226,4.0,9.0,83,0.00,,---,0.00,VWS V14.01,2013-01-02 16:10:00,
2013-01-02 10:15:00,31.3,26.8,30.40,SSW,193,5.0,9.0,83,0.00,,---,0.00,VWS V14.01,2013-01-02 16:15:00,
2013-01-02 10:20:00,31.9,27.0,30.40,West,277,3.0,9.0,82,0.00,,---,0.00,VWS V14.01,2013-01-02 16:20:00,
2013-01-02 10:25:00,32.3,26.5,30.40,WSW,241,7.0,11.0,79,0.00,,---,0.00,VWS V14.01,2013-01-02 16:25:00,
2013-01-02 10:30:00,32.8,27.0,30.41,WSW,253,4.0,11.0,79,0.00,,---,0.00,VWS V14.01,2013-01-02 16:30:00,
2013-01-02 10:35:00,33.2,26.5,30.41,WSW,239,7.0,9.0,76,0.00,,---,0.00,VWS V14.01,2013-01-02 16:35:00,
2013-01-02 10:41:00,33.5,27.1,30.41,WSW,256,5.0,9.0,77,0.00,,---,0.00,VWS V14.01,2013-01-02 16:41:00,
2013-01-02 10:46:00,33.8,26.7,30.40,West,265,6.0,10.0,75,0.00,,---,0.00,VWS V14.01,2013-01-02 16:46:00,
2013-01-02 10:51:00,34.0,26.9,30.40,West,281,4.0,10.0,75,0.00,,---,0.00,VWS V14.01,2013-01-02 16:51:00,
2013-01-02 10:56:00,34.0,26.9,30.41,SW,233,2.0,10.0,75,0.00,,---,0.00,VWS V14.01,2013-01-02 16:56:00,
2013-01-02 11:01:00,34.6,27.5,30.40,WSW,255,6.0,6.0,75,0.00,,---,0.00,VWS V14.01,2013-01-02 17:01:00,
2013-01-02 11:06:00,35.4,27.3,30.40,WNW,287,4.0,8.0,72,0.00,,---,0.00,VWS V14.01,2013-01-02 17:06:00,
2013-01-02 11:11:00,35.9,27.1,30.40,West,266,8.0,9.0,70,0.00,,---,0.00,VWS V14.01,2013-01-02 17:11:00,
2013-01-02 11:16:00,36.1,27.3,30.40,WNW,294,7.0,11.0,70,0.00,,---,0.00,VWS V14.01,2013-01-02 17:16:00,
2013-01-02 11:22:00,36.3,26.8,30.39,West,266,7.0,11.0,68,0.00,,---,0.00,VWS V14.01,2013-01-02 17:22:00,
2013-01-02 11:27:00,36.5,26.6,30.39,WNW,283,8.0,13.0,67,0.00,,---,0.00,VWS V14.01,2013-01-02 17:27:00,
2013-01-02 11:32:00,36.6,26.3,30.39,West,264,8.0,10.0,66,0.00,,---,0.00,VWS V14.01,2013-01-02 17:32:00,
2013-01-02 11:37:00,36.7,26.4,30.38,WNW,290,7.0,10.0,66,0.00,,---,0.00,VWS V14.01,2013-01-02 17:37:00,
2013-01-02 11:42:00,36.8,26.5,30.38,West,269,9.0,10.0,66,0.00,,---,0.00,VWS V14.01,2013-01-02 17:42:00,
2013-01-02 11:47:00,37.1,26.4,30.38,West,263,10.0,10.0,65,0.00,,---,0.00,VWS V14.01,2013-01-02 17:47:00,
2013-01-02 11:52:00,37.2,26.5,30.37,West,261,8.0,12.0,65,0.00,,---,0.00,VWS V14.01,2013-01-02 17:52:00,
2013-01-02 11:57:00,37.6,26.5,30.37,West,264,7.0,12.0,64,0.00,,---,0.00,VWS V14.01,2013-01-02 17:57:00,
2013-01-02 12:02:00,37.9,26.5,30.37,West,265,6.0,13.0,63,0.00,,---,0.00,VWS V14.01,2013-01-02 18:02:00,
2013-01-02 12:07:00,38.3,27.2,30.37,West,281,9.0,13.0,64,0.00,,---,0.00,VWS V14.01,2013-01-02 18:07:00,
2013-01-02 12:13:00,38.5,27.4,30.37,WNW,288,8.0,13.0,64,0.00,,---,0.00,VWS V14.01,2013-01-02 18:13:00,
2013-01-02 12:18:00,38.7,27.6,30.36,WNW,283,9.0,13.0,64,0.00,,---,0.00,VWS V14.01,2013-01-02 18:18:00,
2013-01-02 12:23:00,39.3,27.0,30.35,WNW,293,6.0,14.0,61,0.00,,---,0.00,VWS V14.01,2013-01-02 18:23:00,
2013-01-02 12:28:00,39.8,27.5,30.35,WNW,291,10.0,14.0,61,0.00,,---,0.00,VWS V14.01,2013-01-02 18:28:00,
2013-01-02 12:33:00,40.2,27.8,30.34,WNW,284,10.0,12.0,61,0.00,,---,0.00,VWS V14.01,2013-01-02 18:33:00,
2013-01-02 12:38:00,40.4,26.8,30.34,WNW,299,7.0,15.0,58,0.00,,---,0.00,VWS V14.01,2013-01-02 18:38:00,
2013-01-02 12:43:00,40.7,27.1,30.34,NW,304,7.0,15.0,58,0.00,,---,0.00,VWS V14.01,2013-01-02 18:43:00,
2013-01-02 12:48:00,40.9,27.3,30.33,WNW,302,3.0,16.0,58,0.00,,---,0.00,VWS V14.01,2013-01-02 18:48:00,
2013-01-02 12:53:00,40.9,26.4,30.33,West,266,7.0,16.0,56,0.00,,---,0.00,VWS V14.01,2013-01-02 18:53:00,
2013-01-02 12:59:00,41.2,26.7,30.33,West,274,11.0,16.0,56,0.00,,---,0.00,VWS V14.01,2013-01-02 18:59:00,
2013-01-02 13:04:00,41.4,26.5,30.32,WNW,286,5.0,13.0,55,0.00,,---,0.00,VWS V14.01,2013-01-02 19:04:00,
2013-01-02 13:09:00,41.5,28.3,30.32,NNW,342,5.0,13.0,59,0.00,,---,0.00,VWS V14.01,2013-01-02 19:09:00,
2013-01-02 13:14:00,42.1,28.0,30.32,WNW,283,7.0,13.0,57,0.00,,---,0.00,VWS V14.01,2013-01-02 19:14:00,
2013-01-02 13:19:00,42.2,26.8,30.32,NW,325,5.0,13.0,54,0.00,,---,0.00,VWS V14.01,2013-01-02 19:19:00,
2013-01-02 13:24:00,42.5,27.0,30.32,WSW,257,3.0,13.0,54,0.00,,---,0.00,VWS V14.01,2013-01-02 19:24:00,
2013-01-02 13:29:00,42.5,26.6,30.32,WNW,297,7.0,13.0,53,0.00,,---,0.00,VWS V14.01,2013-01-02 19:29:00,
2013-01-02 13:34:00,42.6,26.7,30.31,WNW,290,8.0,10.0,53,0.00,,---,0.00,VWS V14.01,2013-01-02 19:34:00,
2013-01-02 13:39:00,42.5,25.7,30.31,WSW,241,7.0,11.0,51,0.00,,---,0.00,VWS V14.01,2013-01-02 19:39:00,
2013-01-02 13:45:00,42.7,26.3,30.31,WNW,301,6.0,11.0,52,0.00,,---,0.00,VWS V14.01,2013-01-02 19:45:00,
2013-01-02 13:50:00,42.8,25.5,30.31,WNW,284,5.0,14.0,50,0.00,,---,0.00,VWS V14.01,2013-01-02 19:50:00,
2013-01-02 13:55:00,43.2,25.8,30.31,West,266,4.0,14.0,50,0.00,,---,0.00,VWS V14.01,2013-01-02 19:55:00,
2013-01-02 14:00:00,43.4,26.5,30.30,WNW,293,11.0,14.0,51,0.00,,---,0.00,VWS V14.01,2013-01-02 20:00:00,
2013-01-02 14:05:00,43.1,25.7,30.30,West,263,6.0,12.0,50,0.00,,---,0.00,VWS V14.01,2013-01-02 20:05:00,
2013-01-02 14:10:00,42.9,26.0,30.30,WNW,302,5.0,12.0,51,0.00,,---,0.00,VWS V14.01,2013-01-02 20:10:00,
2013-01-02 14:15:00,43.5,25.6,30.30,West,281,6.0,12.0,49,0.00,,---,0.00,VWS V14.01,2013-01-02 20:15:00,
2013-01-02 14:20:00,43.4,25.5,30.30,NW,326,8.0,12.0,49,0.00,,---,0.00,VWS V14.01,2013-01-02 20:20:00,
2013-01-02 14:26:00,43.9,26.5,30.30,WNW,287,6.0,12.0,50,0.00,,---,0.00,VWS V14.01,2013-01-02 20:26:00,
2013-01-02 14:31:00,43.8,25.9,30.30,SW,235,2.0,3.0,49,0.00,,---,0.00,VWS V14.01,2013-01-02 20:31:00,
2013-01-02 14:36:00,43.8,25.9,30.29,West,266,5.0,10.0,49,0.00,,---,0.00,VWS V14.01,2013-01-02 20:36:00,
2013-01-02 14:41:00,43.5,26.1,30.29,WNW,291,6.0,10.0,50,0.00,,---,0.00,VWS V14.01,2013-01-02 20:41:00,
2013-01-02 14:46:00,43.7,26.8,30.29,West,270,4.0,10.0,51,0.00,,---,0.00,VWS V14.01,2013-01-02 20:46:00,
2013-01-02 14:51:00,44.0,26.6,30.29,WNW,294,4.0,10.0,50,0.00,,---,0.00,VWS V14.01,2013-01-02 20:51:00,
2013-01-02 14:56:00,43.7,25.8,30.29,West,269,2.0,10.0,49,0.00,,---,0.00,VWS V14.01,2013-01-02 20:56:00,
2013-01-02 15:01:00,43.9,26.0,30.29,West,266,1.0,4.0,49,0.00,,---,0.00,VWS V14.01,2013-01-02 21:01:00,
2013-01-02 15:07:00,44.2,26.3,30.29,West,259,3.0,8.0,49,0.00,,---,0.00,VWS V14.01,2013-01-02 21:07:00,
2013-01-02 15:12:00,44.2,25.3,30.29,West,263,5.0,9.0,47,0.00,,---,0.00,VWS V14.01,2013-01-02 21:12:00,
2013-01-02 15:17:00,44.5,25.5,30.29,West,276,5.0,10.0,47,0.00,,---,0.00,VWS V14.01,2013-01-02 21:17:00,
2013-01-02 15:22:00,44.5,25.0,30.28,West,268,4.0,10.0,46,0.00,,---,0.00,VWS V14.01,2013-01-02 21:22:00,
2013-01-02 15:27:00,44.6,24.0,30.28,WNW,295,4.0,10.0,44,0.00,,---,0.00,VWS V14.01,2013-01-02 21:27:00,
2013-01-02 15:32:00,44.7,24.7,30.28,WNW,288,4.0,8.0,45,0.00,,---,0.00,VWS V14.01,2013-01-02 21:32:00,
2013-01-02 15:37:00,44.7,25.2,30.29,WSW,257,3.0,8.0,46,0.00,,---,0.00,VWS V14.01,2013-01-02 21:37:00,
2013-01-02 15:42:00,45.1,25.6,30.29,WNW,294,2.0,8.0,46,0.00,,---,0.00,VWS V14.01,2013-01-02 21:42:00,
2013-01-02 15:47:00,45.0,25.0,30.29,WSW,258,4.0,8.0,45,0.00,,---,0.00,VWS V14.01,2013-01-02 21:47:00,
2013-01-02 15:53:00,45.1,25.6,30.29,NNW,333,3.0,9.0,46,0.00,,---,0.00,VWS V14.01,2013-01-02 21:53:00,
2013-01-02 15:58:00,45.0,25.5,30.29,WNW,290,4.0,9.0,46,0.00,,---,0.00,VWS V14.01,2013-01-02 21:58:00,
2013-01-02 16:03:00,45.1,25.6,30.29,NNW,328,2.0,5.0,46,0.00,,---,0.00,VWS V14.01,2013-01-02 22:03:00,
2013-01-02 16:08:00,45.2,25.7,30.29,NW,310,4.0,7.0,46,0.00,,---,0.00,VWS V14.01,2013-01-02 22:08:00,
2013-01-02 16:13:00,45.3,25.8,30.29,NW,324,4.0,7.0,46,0.00,,---,0.00,VWS V14.01,2013-01-02 22:13:00,
2013-01-02 16:18:00,45.3,26.3,30.29,WNW,301,3.0,7.0,47,0.00,,---,0.00,VWS V14.01,2013-01-02 22:18:00,
2013-01-02 16:23:00,45.4,26.9,30.29,NW,304,7.0,7.0,48,0.00,,---,0.00,VWS V14.01,2013-01-02 22:23:00,
2013-01-02 16:28:00,45.3,26.8,30.29,WSW,257,5.0,7.0,48,0.00,,---,0.00,VWS V14.01,2013-01-02 22:28:00,
2013-01-02 16:34:00,45.4,26.4,30.29,West,268,3.0,5.0,47,0.00,,---,0.00,VWS V14.01,2013-01-02 22:34:00,
2013-01-02 16:39:00,45.5,27.5,30.29,West,276,4.0,6.0,49,0.00,,---,0.00,VWS V14.01,2013-01-02 22:39:00,
2013-01-02 16:44:00,45.3,26.3,30.29,WNW,297,5.0,7.0,47,0.00,,---,0.00,VWS V14.01,2013-01-02 22:44:00,
2013-01-02 16:49:00,45.2,26.7,30.29,West,266,4.0,7.0,48,0.00,,---,0.00,VWS V14.01,2013-01-02 22:49:00,
2013-01-02 16:54:00,45.1,27.1,30.29,West,273,2.0,7.0,49,0.00,,---,0.00,VWS V14.01,2013-01-02 22:54:00,
2013-01-02 16:59:00,45.2,27.2,30.29,West,273,2.0,7.0,49,0.00,,---,0.00,VWS V14.01,2013-01-02 22:59:00,
2013-01-02 17:04:00,45.1,27.6,30.29,West,278,2.0,4.0,50,0.00,,---,0.00,VWS V14.01,2013-01-02 23:04:00,
2013-01-02 17:09:00,44.9,27.9,30.29,WNW,293,2.0,4.0,51,0.00,,---,0.00,VWS V14.01,2013-01-02 23:09:00,
2013-01-02 17:15:00,44.5,28.5,30.29,WNW,301,2.0,4.0,53,0.00,,---,0.00,VWS V14.01,2013-01-02 23:15:00,
2013-01-02 17:20:00,44.1,28.1,30.29,WNW,294,2.0,4.0,53,0.00,,---,0.00,VWS V14.01,2013-01-02 23:20:00,
2013-01-02 17:25:00,43.7,27.7,30.29,NW,304,2.0,4.0,53,0.00,,---,0.00,VWS V14.01,2013-01-02 23:25:00,
2013-01-02 17:30:00,43.1,28.0,30.29,WNW,302,2.0,4.0,55,0.00,,---,0.00,VWS V14.01,2013-01-02 23:30:00,
2013-01-02 17:35:00,42.5,28.4,30.29,NW,311,2.0,3.0,57,0.00,,---,0.00,VWS V14.01,2013-01-02 23:35:00,
2013-01-02 17:40:00,41.7,27.6,30.29,NW,309,2.0,3.0,57,0.00,,---,0.00,VWS V14.01,2013-01-02 23:40:00,
2013-01-02 17:45:00,41.2,27.6,30.29,NW,307,1.0,3.0,58,0.00,,---,0.00,VWS V14.01,2013-01-02 23:45:00,
2013-01-02 17:51:00,40.7,27.1,30.30,NW,306,1.0,3.0,58,0.00,,---,0.00,VWS V14.01,2013-01-02 23:51:00,
2013-01-02 17:56:00,40.1,27.4,30.29,NW,306,0.0,3.0,60,0.00,,---,0.00,VWS V14.01,2013-01-02 23:56:00,
2013-01-02 18:01:00,39.8,26.7,30.30,NW,306,0.0,0.0,59,0.00,,---,0.00,VWS V14.01,2013-01-03 00:01:00,
2013-01-02 18:06:00,39.6,26.1,30.30,NW,307,0.0,1.0,58,0.00,,---,0.00,VWS V14.01,2013-01-03 00:06:00,
2013-01-02 18:11:00,40.2,25.8,30.30,NW,307,0.0,1.0,56,0.00,,---,0.00,VWS V14.01,2013-01-03 00:11:00,
2013-01-02 18:16:00,40.4,26.0,30.31,NW,307,0.0,1.0,56,0.00,,---,0.00,VWS V14.01,2013-01-03 00:16:00,
2013-01-02 18:21:00,39.5,25.5,30.31,West,276,0.0,1.0,57,0.00,,---,0.00,VWS V14.01,2013-01-03 00:21:00,
2013-01-02 18:26:00,39.3,25.8,30.31,West,276,1.0,1.0,58,0.00,,---,0.00,VWS V14.01,2013-01-03 00:26:00,
2013-01-02 18:32:00,39.4,25.9,30.31,West,276,0.0,0.0,58,0.00,,---,0.00,VWS V14.01,2013-01-03 00:32:00,
2013-01-02 18:37:00,39.5,26.0,30.31,West,275,0.0,1.0,58,0.00,,---,0.00,VWS V14.01,2013-01-03 00:37:00,
2013-01-02 18:42:00,39.6,26.1,30.31,WSW,257,0.0,1.0,58,0.00,,---,0.00,VWS V14.01,2013-01-03 00:42:00,
2013-01-02 18:48:00,39.3,25.8,30.32,West,263,1.0,1.0,58,0.00,,---,0.00,VWS V14.01,2013-01-03 00:48:00,
2013-01-02 18:53:00,38.8,25.7,30.32,West,262,1.0,1.0,59,0.00,,---,0.00,VWS V14.01,2013-01-03 00:53:00,
2013-01-02 18:58:00,38.4,25.3,30.32,West,264,2.0,2.0,59,0.00,,---,0.00,VWS V14.01,2013-01-03 00:58:00,
2013-01-02 19:03:00,38.0,25.4,30.32,WNW,285,1.0,2.0,60,0.00,,---,0.00,VWS V14.01,2013-01-03 01:03:00,
2013-01-02 19:08:00,37.7,25.1,30.32,West,271,1.0,2.0,60,0.00,,---,0.00,VWS V14.01,2013-01-03 01:08:00,
2013-01-02 19:13:00,37.1,25.3,30.33,West,278,2.0,2.0,62,0.00,,---,0.00,VWS V14.01,2013-01-03 01:13:00,
2013-01-02 19:18:00,35.9,25.3,30.33,NW,304,2.0,3.0,65,0.00,,---,0.00,VWS V14.01,2013-01-03 01:18:00,
2013-01-02 19:24:00,34.5,25.0,30.34,NW,304,1.0,4.0,68,0.00,,---,0.00,VWS V14.01,2013-01-03 01:24:00,
2013-01-02 19:29:00,33.6,25.2,30.34,NNW,340,2.0,4.0,71,0.00,,---,0.00,VWS V14.01,2013-01-03 01:29:00,
2013-01-02 19:34:00,34.0,25.6,30.34,NNW,333,3.0,4.0,71,0.00,,---,0.00,VWS V14.01,2013-01-03 01:34:00,
2013-01-02 19:39:00,34.0,24.9,30.35,NW,319,2.0,5.0,69,0.00,,---,0.00,VWS V14.01,2013-01-03 01:39:00,
2013-01-02 19:44:00,33.5,24.4,30.35,NW,312,2.0,5.0,69,0.00,,---,0.00,VWS V14.01,2013-01-03 01:44:00,
2013-01-02 19:49:00,33.1,24.4,30.35,WNW,302,2.0,5.0,70,0.00,,---,0.00,VWS V14.01,2013-01-03 01:49:00,
2013-01-02 19:54:00,33.3,24.6,30.36,WNW,301,1.0,5.0,70,0.00,,---,0.00,VWS V14.01,2013-01-03 01:54:00,
2013-01-02 20:00:00,33.4,24.7,30.36,WNW,301,0.0,5.0,70,0.00,,---,0.00,VWS V14.01,2013-01-03 02:00:00,
2013-01-02 20:05:00,33.6,24.9,30.36,WNW,301,1.0,1.0,70,0.00,,---,0.00,VWS V14.01,2013-01-03 02:05:00,
2013-01-02 20:10:00,33.5,24.8,30.36,WNW,302,1.0,2.0,70,0.00,,---,0.00,VWS V14.01,2013-01-03 02:10:00,
2013-01-02 20:15:00,33.7,25.0,30.36,NW,320,2.0,2.0,70,0.00,,---,0.00,VWS V14.01,2013-01-03 02:15:00,
2013-01-02 20:20:00,33.9,25.2,30.36,NNW,337,2.0,2.0,70,0.00,,---,0.00,VWS V14.01,2013-01-03 02:20:00,
2013-01-02 20:25:00,34.4,25.3,30.36,NNW,335,2.0,3.0,69,0.00,,---,0.00,VWS V14.01,2013-01-03 02:25:00,
2013-01-02 20:30:00,34.6,25.5,30.37,NNW,333,4.0,5.0,69,0.00,,---,0.00,VWS V14.01,2013-01-03 02:30:00,
2013-01-02 20:35:00,34.4,25.3,30.37,NNW,330,2.0,3.0,69,0.00,,---,0.00,VWS V14.01,2013-01-03 02:35:00,
2013-01-02 20:40:00,34.1,25.4,30.37,NW,318,3.0,4.0,70,0.00,,---,0.00,VWS V14.01,2013-01-03 02:40:00,
2013-01-02 20:45:00,34.1,25.7,30.37,NNW,328,5.0,6.0,71,0.00,,---,0.00,VWS V14.01,2013-01-03 02:45:00,
2013-01-02 20:51:00,33.8,25.4,30.37,NNW,333,4.0,7.0,71,0.00,,---,0.00,VWS V14.01,2013-01-03 02:51:00,
2013-01-02 20:56:00,33.6,25.5,30.37,North,355,3.0,7.0,72,0.00,,---,0.00,VWS V14.01,2013-01-03 02:56:00,
2013-01-02 21:01:00,33.3,25.6,30.37,NW,326,3.0,4.0,73,0.00,,---,0.00,VWS V14.01,2013-01-03 03:01:00,
2013-01-02 21:06:00,33.2,25.8,30.37,NW,321,3.0,5.0,74,0.00,,---,0.00,VWS V14.01,2013-01-03 03:06:00,
2013-01-02 21:11:00,32.9,25.5,30.37,North,349,3.0,5.0,74,0.00,,---,0.00,VWS V14.01,2013-01-03 03:11:00,
2013-01-02 21:16:00,33.1,26.0,30.38,NNW,339,3.0,5.0,75,0.00,,---,0.00,VWS V14.01,2013-01-03 03:16:00,
2013-01-02 21:22:00,32.9,25.9,30.37,NNW,336,2.0,5.0,75,0.00,,---,0.00,VWS V14.01,2013-01-03 03:22:00,
2013-01-02 21:27:00,32.8,25.8,30.37,NNW,337,3.0,5.0,75,0.00,,---,0.00,VWS V14.01,2013-01-03 03:27:00,
2013-01-02 21:32:00,32.6,25.9,30.37,NNW,327,3.0,5.0,76,0.00,,---,0.00,VWS V14.01,2013-01-03 03:32:00,
2013-01-02 21:39:00,32.3,25.9,30.38,NW,316,3.0,5.0,77,0.00,,---,0.00,VWS V14.01,2013-01-03 03:39:00,
2013-01-02 21:45:00,32.2,25.8,30.38,NW,321,2.0,6.0,77,0.00,,---,0.00,VWS V14.01,2013-01-03 03:45:00,
2013-01-02 21:50:00,32.1,26.0,30.38,NW,321,3.0,6.0,78,0.00,,---,0.00,VWS V14.01,2013-01-03 03:50:00,
2013-01-02 21:55:00,31.9,25.8,30.38,NNW,330,5.0,6.0,78,0.00,,---,0.00,VWS V14.01,2013-01-03 03:55:00,
2013-01-02 22:00:00,31.7,25.6,30.38,NW,321,4.0,6.0,78,0.00,,---,0.00,VWS V14.01,2013-01-03 04:00:00,
2013-01-02 22:05:00,31.6,25.9,30.39,North,7,3.0,5.0,79,0.00,,---,0.00,VWS V14.01,2013-01-03 04:05:00,
2013-01-02 22:10:00,31.6,25.9,30.38,NW,321,4.0,5.0,79,0.00,,---,0.00,VWS V14.01,2013-01-03 04:10:00,
2013-01-02 22:15:00,31.4,26.0,30.38,NNW,338,4.0,5.0,80,0.00,,---,0.00,VWS V14.01,2013-01-03 04:15:00,
2013-01-02 22:21:00,31.2,25.8,30.39,NW,324,4.0,5.0,80,0.00,,---,0.00,VWS V14.01,2013-01-03 04:21:00,
2013-01-02 22:26:00,31.1,26.0,30.39,North,11,4.0,7.0,81,0.00,,---,0.00,VWS V14.01,2013-01-03 04:26:00,
2013-01-02 22:31:00,31.0,25.9,30.39,North,349,5.0,8.0,81,0.00,,---,0.00,VWS V14.01,2013-01-03 04:31:00,
2013-01-02 22:36:00,30.9,25.8,30.39,NW,323,4.0,8.0,81,0.00,,---,0.00,VWS V14.01,2013-01-03 04:36:00,
2013-01-02 22:41:00,30.8,26.0,30.40,NNW,330,6.0,8.0,82,0.00,,---,0.00,VWS V14.01,2013-01-03 04:41:00,
2013-01-02 22:46:00,30.9,26.1,30.40,NNW,340,6.0,10.0,82,0.00,,---,0.00,VWS V14.01,2013-01-03 04:46:00,
2013-01-02 22:51:00,30.9,26.1,30.40,NNW,348,6.0,10.0,82,0.00,,---,0.00,VWS V14.01,2013-01-03 04:51:00,
2013-01-02 22:57:00,30.8,26.0,30.40,NNW,340,5.0,10.0,82,0.00,,---,0.00,VWS V14.01,2013-01-03 04:57:00,
2013-01-02 23:01:00,30.4,25.6,30.40,North,352,4.0,5.0,82,0.00,,---,0.00,VWS V14.01,2013-01-03 05:01:00,
2013-01-02 23:02:00,30.4,25.6,30.40,North,360,7.0,7.0,82,0.00,,---,0.00,VWS V14.01,2013-01-03 05:02:00,
2013-01-02 23:04:00,30.4,25.9,30.40,NNW,342,3.0,7.0,83,0.00,,---,0.00,VWS V14.01,2013-01-03 05:04:00,
2013-01-02 23:09:00,30.0,25.5,30.40,NNW,333,4.0,7.0,83,0.00,,---,0.00,VWS V14.01,2013-01-03 05:09:00,
2013-01-02 23:14:00,29.9,25.7,30.40,NW,321,6.0,7.0,84,0.00,,---,0.00,VWS V14.01,2013-01-03 05:14:00,
2013-01-02 23:19:00,29.8,25.6,30.41,NW,319,2.0,7.0,84,0.00,,---,0.00,VWS V14.01,2013-01-03 05:19:00,
2013-01-02 23:24:00,29.7,25.5,30.41,NNW,336,3.0,7.0,84,0.00,,---,0.00,VWS V14.01,2013-01-03 05:24:00,
2013-01-02 23:29:00,29.7,25.5,30.41,NW,321,3.0,7.0,84,0.00,,---,0.00,VWS V14.01,2013-01-03 05:29:00,
2013-01-02 23:35:00,29.8,25.6,30.42,NNW,330,4.0,6.0,84,0.00,,---,0.00,VWS V14.01,2013-01-03 05:35:00,
2013-01-02 23:40:00,29.9,25.7,30.42,NW,326,1.0,6.0,84,0.00,,---,0.00,VWS V14.01,2013-01-03 05:40:00,
2013-01-02 23:45:00,29.9,25.7,30.42,NW,326,0.0,6.0,84,0.00,,---,0.00,VWS V14.01,2013-01-03 05:45:00,
2013-01-02 23:50:00,29.8,25.6,30.43,SSW,210,2.0,6.0,84,0.00,,---,0.00,VWS V14.01,2013-01-03 05:50:00,
2013-01-02 23:55:00,29.8,25.6,30.43,SSW,197,1.0,6.0,84,0.00,,---,0.00,VWS V14.01,2013-01-03 05:55:00,